This demonstration page uses our WeatherBlox Daily Observations layout. Learn more.

Left ArrowRight Arrow

Hourly Observations for July 28, 2019

Temp ( °F °C ) Dew Point ( °F °C ) Humidity (%) Winds ( mph kmh ) Pressure ( in mb ) Visibility ( mi km ) Precip ( " mm )
12:53 am 00:53 Clear 68 20 66 18.9 93 93 N N/A 30.16 1022 10 16 N/A
1:53 am 01:53 Clear 67 19.4 66 18.9 97 97 N N/A 30.16 1021 10 16 N/A
2:53 am 02:53 Clear 67 19.4 66 18.9 97 97 N N/A 30.16 1022 10 16 N/A
3:53 am 03:53 Clear 67 19.4 65 18.3 93 93 N N/A 30.16 1021 10 16 N/A
4:53 am 04:53 Clear 66 18.9 65 18.3 96 96 N N/A 30.16 1021 9 14 N/A
5:53 am 05:53 Clear 66 18.9 65 18.3 96 96 N N/A 30.17 1022 9 14 N/A
6:53 am 06:53 Sunny 65 18.3 65 18.3 100 100 N N/A 30.18 1022 10 16 N/A
7:26 am 07:26 Mostly Sunny 67 19.4 66 18.9 97 97 N N/A 30.18 1022 10 16 N/A
7:53 am 07:53 Sunny 70 21.1 67 19.4 90 90 N N/A 30.18 1022 10 16 N/A
8:53 am 08:53 Sunny 75 23.9 67 19.4 76 76 WSW 3 6 30.19 1022 10 16 N/A
9:53 am 09:53 Sunny 79 26.1 68 20 69 69 VRB 5 7 30.19 1022 10 16 N/A
10:53 am 10:53 Sunny 82 27.8 68 20 63 63 VRB 5 7 30.19 1022 10 16 N/A
11:53 am 11:53 Mostly Sunny 84 28.9 68 20 59 59 SW 8 13 30.17 1022 10 16 N/A
12:53 pm 12:53 Mostly Sunny 86 30 66 18.9 51 51 SW 8 13 30.16 1021 10 16 N/A
1:53 pm 13:53 Partly Cloudy 87 30.6 65 18.3 48 48 WSW 8 13 30.14 1021 10 16 N/A
2:53 pm 14:53 Sunny 87 30.6 64 17.8 46 46 W 9 15 30.13 1020 10 16 N/A
3:53 pm 15:53 Mostly Sunny 88 31.1 64 17.8 45 45 WSW 9 15 30.11 1020 10 16 N/A
4:53 pm 16:53 Sunny 88 31.1 64 17.8 45 45 WSW 9 15 30.09 1019 10 16 N/A
5:53 pm 17:53 Sunny 87 30.6 64 17.8 46 46 WSW 6 9 30.08 1019 10 16 N/A
6:53 pm 18:53 Mostly Sunny 87 30.6 64 17.8 46 46 WSW 8 13 30.07 1018 10 16 N/A
7:53 pm 19:53 Sunny 85 29.4 65 18.3 51 51 VRB 5 7 30.07 1018 10 16 N/A
8:53 pm 20:53 Sunny 75 23.9 69 20.6 82 82 N N/A 30.07 1018 10 16 N/A
9:23 pm 21:23 Mostly Clear 73 22.8 68 20 84 84 N N/A 30.06 1018 10 16 N/A
9:53 pm 21:53 Clear 72 22.2 68 20 87 87 N N/A 30.08 1019 10 16 N/A
10:53 pm 22:53 Clear 70 21.1 67 19.4 90 90 N N/A 30.09 1019 10 16 N/A
11:53 pm 23:53 Clear 69 20.6 67 19.4 93 93 N N/A 30.07 1018 10 16 N/A

Powered by AerisWeather